Location: Santa Cristina
(46.5667°N, 11.7167°E)
Time: 04:56:37
(UTC+00:00)

Meteor 1-19 Rocket - Pass Details

Date: 21 April 2021
Orbit: 807 x 928 km, 81.2° (Epoch: 10 May)

Event Time Altitude Azimuth Distance (km) Brightness Sun altitude
Exits shadow 00:46:27 66° 116° (ESE) 921 4.3 -27.8°
Maximum altitude 00:46:44 67° 97° (E) 913 4.3 -27.8°
Drops below altitude 10° 00:52:12 10° 16° (NNE) 2,441 7.5 -27.4°
Sets 00:54:35 0° 14° (NNE) 3,365 8.5 -27.2°
